DELTA 1 DEB (YO), 227

Orbit data source: Space-Track

DELTA 1 DEB (YO), 227 is space debris in LEO originally from a launch on Thu, 08 Feb 1962 UTC launched from the Air Force Eastern Test Range (AFETR). Debris objects in space refer to the collection of defunct objects orbiting the Earth. Examples of debris include non-operational satellites, rocket bodies, and fragments generated from explosions, collisions, or faulty payload assembly.

Loading next visibility...
Identifier
227, 1962-002B
Orbit
LEO
Last TLE update
1 day ago
Origin
Manufacturer
RCA/East Windsor
Mission
Spacecraft
Bus & Motor
Unknown
Mass
~1 kg wet, ~1 kg dry
Launch date (UTC)
1962-02-08 (63 years ago)
Launch vehicle
Unknown
Launch site
Air Force Eastern Test Range (AFETR)
Object type
Payload
Rocket body
Debris
Shape & HBR
Unknown
Radar Cross Section
Small (<0.1 m²)

Expand to show TLE details & history

TLE from 1 day ago
0 DELTA 1 DEB (YO)
1 00227U 62002B   25169.07650647  .00000250  00000-0  12088-3 0  9998
2 00227  48.1449 185.3076 0128061 358.4410   1.6069 14.40361830291808
Epoch: 2025-06-18T01:50Z
TLE epoch observation values (Epoch: 2025-06-18T01:50:10.158Z)
Latitude
-0.0001°
Longitude
-108.79855°
Altitude
666.306 km
Speed
7.573 km/s
True Right ascension
12h 21m 13s
True Declination
0° 00' 00"
Sunlit
Object was in daylight at epoch
Visualization orbit readout
Latitude
45.918°
Longitude
-46.60322°
Altitude
731.455 km
Speed
7.511 km/s
Apparent Right ascension
21h 10m 37s
Apparent Declination
17° 36' 25"
Sunlit
Object is in daylight
Visualization observer readout
Local Sidereal Time
13:58:43
Azimuth
65.104° ENE
Elevation
-1.807°
Doppler factor
1
Orbital elements
Apogee altitude
849.734 km
Perigee altitude
666.953 km
Semi-major axis
7,136.481 km
Eccentricity
0.01281
Inclination
48.1449°
RAAN
185.3076°
Arg. of periapsis
358.441°
True anomaly
Unknown
Mean anomaly
1.6069°
Eccentric anomaly
Unknown
Mean motion
3.60012 °/min
Orbital period
100 mins
BSTAR
0.00012088
Loading maneuver chart data...
Loading SW <> Apogee altitude chart data...
Loading historical data...
Loading historical data...
Loading historical data...
Loading historical data...
Loading historical data...
Loading historical data...
Loading historical data...
Other satellites on launch #2 in the year 1962 (1962-02-08 UTC)

DELTA 1 DEB (YO) Visibility forecast

Observer location: undefined°, undefined°

Span
Click to sort rows by Start time (UTC) header in descending order
Start Az.
Max El. time (UTC)
Max El. Az.
Max El.
End time (UTC)
End Az.
9 mins2025-06-19 04:40:46.796Z247.903° W2025-06-19 04:45:46.796Z351.373° N43.325°2025-06-19 04:49:46.796Z55.841° ENE
7 mins2025-06-19 06:27:46.796Z297.69° NW2025-06-19 06:30:46.796Z349.846° N29.635°2025-06-19 06:34:46.796Z53.253° ENE
8 mins2025-06-19 08:12:46.796Z310.37° NW2025-06-19 08:16:46.796Z20.531° NNE32.82°2025-06-19 08:20:46.796Z79.525° E
9 mins2025-06-19 09:57:46.796Z298.359° NW2025-06-19 10:01:46.796Z194.584° SSW44.691°2025-06-19 10:06:46.796Z126.448° SE
6 mins2025-06-19 11:43:46.796Z256.752° W2025-06-19 11:45:46.796Z230.441° WSW18.824°2025-06-19 11:49:46.796Z184.281° SSW
5 mins2025-06-20 02:16:46.796Z165.543° S2025-06-20 02:18:46.796Z136.623° SSE17.941°2025-06-20 02:21:46.796Z94.242° ESE
|